^^
Station Historical Data
 
Daily Summary for August 25, 2019 Units:  English    Metric   Both
Next Day »
Daily Weekly Monthly Yearly Custom
  Current: High: Low: Average:
Temperature: 82 °F 84.4 °F 77.7 °F 80.4 °F
Dew Point: 67.8 °F 67.8 °F 65.8 °F 66.7 °F
Humidity: 62% 69% 55% 63%
Wind Speed: 1.2mph 4mph 0mph 0.7mph
Wind Gust: 0.1mph 5mph - -
WindWSW - - West
Pressure: 29.9 in 29.9 in 29.8 in -
Precipitation: 0 in      
Historical Graphs
 
 
Tabular Data for August 25, 2019
Time Temperature Dew Point Pressure Wind Wind Speed Wind Gust Humidity Rainfall Rate (Hourly) solar Conditions
00:00 84.4 °F 66.6 °F 29.8 in WSW 3.5 mph 2.1 mph 55% 0 in 0.00 W/m2 CLR
00:05 84.4 °F 66.4 °F 29.8 in WSW 1 mph 5 mph 55% 0 in 0.00 W/m2 CLR
00:10 84.4 °F 66.4 °F 29.8 in SW 2.3 mph 0.7 mph 55% 0 in 0.00 W/m2 CLR
00:15 84.2 °F 66.4 °F 29.8 in Calm   3 mph 55% 0 in 0.00 W/m2 CLR
00:20 84 °F 66.2 °F 29.8 in Calm     55% 0 in 0.00 W/m2 CLR
00:25 84 °F 66 °F 29.8 in Calm   1 mph 55% 0 in 0.00 W/m2 CLR
00:30 83.8 °F 66 °F 29.8 in Calm     55% 0 in 0.00 W/m2 CLR
00:35 83.8 °F 66.4 °F 29.8 in Calm   1 mph 56% 0 in 0.00 W/m2 CLR
00:40 83.8 °F 66.4 °F 29.8 in SW 1 mph   56% 0 in 0.00 W/m2 CLR
00:45 83.7 °F 66.2 °F 29.8 in Calm   1 mph 56% 0 in 0.00 W/m2 CLR
00:50 83.7 °F 66.2 °F 29.8 in SW 1.2 mph   56% 0 in 0.00 W/m2 CLR
00:55 83.5 °F 66.7 °F 29.8 in Calm   2 mph 57% 0 in 0.00 W/m2 CLR
01:00 83.5 °F 66.6 °F 29.8 in Calm     57% 0 in 0.00 W/m2 CLR
01:05 83.5 °F 67.1 °F 29.8 in Calm   2 mph 58% 0 in 0.00 W/m2 CLR
01:10 83.3 °F 66.9 °F 29.8 in SW 1.2 mph 0.2 mph 58% 0 in 0.00 W/m2 CLR
01:15 83.1 °F 66.9 °F 29.8 in SW 1 mph 3 mph 58% 0 in 0.00 W/m2 CLR
01:20 83.1 °F 67.3 °F 29.8 in WSW 1.2 mph 0.4 mph 59% 0 in 0.00 W/m2 CLR
01:25 82.9 °F 67.3 °F 29.8 in WSW 1 mph 2 mph 59% 0 in 0.00 W/m2 CLR
01:30 82.9 °F 67.1 °F 29.8 in West 1.2 mph 0.6 mph 59% 0 in 0.00 W/m2 CLR
01:35 82.8 °F 66.9 °F 29.8 in Calm   2 mph 59% 0 in 0.00 W/m2 CLR
01:40 82.8 °F 66.9 °F 29.8 in West 1 mph 0.1 mph 59% 0 in 0.00 W/m2 CLR
01:45 82.8 °F 66.9 °F 29.8 in Calm   1 mph 59% 0 in 0.00 W/m2 CLR
01:50 82.6 °F 67.3 °F 29.8 in West 1.2 mph   60% 0 in 0.00 W/m2 CLR
01:55 82.6 °F 67.3 °F 29.8 in Calm   1 mph 60% 0 in 0.00 W/m2 CLR
02:00 82.6 °F 67.3 °F 29.8 in Calm     60% 0 in 0.00 W/m2 CLR
02:05 82.4 °F 66.6 °F 29.8 in Calm   1 mph 59% 0 in 0.00 W/m2 CLR
02:10 82.2 °F 66.9 °F 29.8 in Calm     60% 0 in 0.00 W/m2 CLR
02:15 82.2 °F 66.9 °F 29.8 in Calm     60% 0 in 0.00 W/m2 CLR
02:20 82.2 °F 66.9 °F 29.8 in Calm     60% 0 in 0.00 W/m2 CLR
02:25 82 °F 67.3 °F 29.8 in Calm   1 mph 61% 0 in 0.00 W/m2 CLR
02:30 81.9 °F 67.1 °F 29.8 in West 1.2 mph 0.1 mph 61% 0 in 0.00 W/m2 CLR
02:35 81.9 °F 66.9 °F 29.8 in Calm   2 mph 61% 0 in 0.00 W/m2 CLR
02:40 81.7 °F 66.7 °F 29.8 in West 1.2 mph 0.1 mph 61% 0 in 0.00 W/m2 CLR
02:45 81.3 °F 66.7 °F 29.8 in Calm   1 mph 61% 0 in 0.00 W/m2 CLR
02:50 81.1 °F 66.6 °F 29.8 in West 1.2 mph 0.1 mph 61% 0 in 0.00 W/m2 CLR
02:55 81.1 °F 66.4 °F 29.8 in Calm   2 mph 61% 0 in 0.00 W/m2 CLR
03:00 81 °F 66.2 °F 29.8 in Calm     61% 0 in 0.00 W/m2 CLR
03:05 80.8 °F 66.6 °F 29.8 in Calm   1 mph 62% 0 in 0.00 W/m2 CLR
03:10 80.6 °F 66.4 °F 29.8 in North 1.2 mph 0.2 mph 62% 0 in 0.00 W/m2 CLR
03:15 80.6 °F 66.4 °F 29.8 in Calm   1 mph 62% 0 in 0.00 W/m2 CLR
03:20 80.4 °F 66.4 °F 29.8 in North 1.2 mph 0.1 mph 62% 0 in 0.00 W/m2 CLR
03:25 80.2 °F 66 °F 29.8 in Calm   1 mph 62% 0 in 0.00 W/m2 CLR
03:30 80.2 °F 66.6 °F 29.8 in Calm     63% 0 in 0.00 W/m2 CLR
03:35 80.1 °F 66.4 °F 29.8 in Calm   1 mph 63% 0 in 0.00 W/m2 CLR
03:40 80.1 °F 66.4 °F 29.8 in NNW 1.2 mph 0.2 mph 63% 0 in 0.00 W/m2 CLR
03:45 80.1 °F 66.4 °F 29.8 in Calm   2 mph 63% 0 in 0.00 W/m2 CLR
03:50 79.9 °F 66.2 °F 29.8 in NW 1.2 mph 0.1 mph 63% 0 in 0.00 W/m2 CLR
03:55 79.9 °F 66 °F 29.8 in Calm   2 mph 63% 0 in 0.00 W/m2 CLR
04:00 79.9 °F 66 °F 29.8 in WSW 2.3 mph 1 mph 63% 0 in 0.00 W/m2 CLR
04:05 79.7 °F 66 °F 29.8 in West 1 mph 2 mph 63% 0 in 0.00 W/m2 CLR
04:10 79.5 °F 65.8 °F 29.8 in West 2.3 mph 0.9 mph 63% 0 in 0.00 W/m2 CLR
04:15 79.5 °F 65.8 °F 29.8 in West 1 mph 3 mph 63% 0 in 0.00 W/m2 CLR
04:20 79.5 °F 65.8 °F 29.8 in West 1.2 mph 0.1 mph 63% 0 in 0.00 W/m2 CLR
04:25 79.5 °F 66.4 °F 29.8 in Calm   2 mph 64% 0 in 0.00 W/m2 CLR
04:30 79.5 °F 66.7 °F 29.8 in WNW 1.2 mph 0.1 mph 65% 0 in 0.00 W/m2 CLR
04:35 79.5 °F 66.7 °F 29.8 in Calm   2 mph 65% 0 in 0.00 W/m2 CLR
04:40 79.3 °F 66.6 °F 29.8 in WNW 1.2 mph   65% 0 in 0.00 W/m2 CLR
04:45 79.3 °F 66.6 °F 29.8 in Calm   1 mph 65% 0 in 0.00 W/m2 CLR
04:50 79.3 °F 66.6 °F 29.8 in NW 1.2 mph 0.1 mph 65% 0 in 0.00 W/m2 CLR
04:55 79.2 °F 66.4 °F 29.8 in Calm   2 mph 65% 0 in 0.00 W/m2 CLR
05:00 79 °F 66.7 °F 29.9 in NW 1.2 mph 0.1 mph 66% 0 in 0.00 W/m2 CLR
05:05 79 °F 66.6 °F 29.9 in Calm   1 mph 66% 0 in 0.00 W/m2 CLR
05:10 78.8 °F 66.9 °F 29.9 in WNW 1.2 mph 0.2 mph 67% 0 in 0.00 W/m2 CLR
05:15 78.6 °F 66.7 °F 29.9 in Calm   2 mph 67% 0 in 0.00 W/m2 CLR
05:20 78.4 °F 67.1 °F 29.9 in Calm     68% 0 in 0.00 W/m2 CLR
05:25 78.4 °F 66.9 °F 29.9 in Calm   1 mph 68% 0 in 0.00 W/m2 CLR
05:30 78.3 °F 66.9 °F 29.9 in NW 1.2 mph 0.2 mph 68% 0 in 0.00 W/m2 CLR
05:35 78.3 °F 66.7 °F 29.9 in Calm   1 mph 68% 0 in 0.00 W/m2 CLR
05:40 78.1 °F 66.7 °F 29.9 in NW 1.2 mph 0.2 mph 68% 0 in 0.00 W/m2 CLR
05:45 78.1 °F 66.6 °F 29.9 in Calm   1 mph 68% 0 in 0.00 W/m2 OVC
05:50 78.1 °F 66.6 °F 29.9 in NW 1.2 mph   68% 0 in 0.00 W/m2 CLR
05:55 77.9 °F 66.9 °F 29.9 in Calm   2 mph 69% 0 in 0.00 W/m2 OVC
06:00 77.9 °F 66.9 °F 29.9 in Calm     69% 0 in 5.00 W/m2 CLR
06:05 77.7 °F 66.7 °F 29.9 in Calm   1 mph 69% 0 in 7.00 W/m2 SCT
06:10 77.7 °F 66.7 °F 29.9 in WNW 1.2 mph 0.1 mph 69% 0 in 11.00 W/m2 SCT
06:15 77.7 °F 66.7 °F 29.9 in Calm   2 mph 69% 0 in 12.00 W/m2 OVC
06:20 77.7 °F 66.7 °F 29.9 in Calm     69% 0 in 16.00 W/m2 BKN
06:25 77.7 °F 66.7 °F 29.9 in Calm   3 mph 69% 0 in 19.00 W/m2 OVC
06:30 77.7 °F 66.4 °F 29.9 in NW 1.2 mph   68% 0 in 23.00 W/m2 BKN
06:35 77.7 °F 66.4 °F 29.9 in Calm   1 mph 68% 0 in 28.00 W/m2 OVC
06:40 77.7 °F 66.4 °F 29.9 in West 1 mph   68% 0 in 28.00 W/m2 BKN
06:45 77.7 °F 66.4 °F 29.9 in Calm   2 mph 68% 0 in 33.00 W/m2 OVC
06:50 77.9 °F 66.6 °F 29.9 in WSW 3 mph 1.2 mph 68% 0 in 40.00 W/m2 BKN
06:55 78.1 °F 66.6 °F 29.9 in West 1 mph 3 mph 68% 0 in 49.00 W/m2 OVC
07:00 78.1 °F 66.7 °F 29.9 in WNW 4 mph 1.6 mph 68% 0 in 60.00 W/m2 BKN
07:05 78.3 °F 66.7 °F 29.9 in WSW 1 mph 4 mph 68% 0 in 62.00 W/m2 OVC
07:10 78.4 °F 66.9 °F 29.9 in WSW 3.5 mph 2.3 mph 68% 0 in 67.00 W/m2 BKN
07:15 78.4 °F 67.1 °F 29.9 in WSW 1 mph 3 mph 68% 0 in 76.00 W/m2 OVC
07:20 78.6 °F 66.7 °F 29.9 in WNW 3.5 mph 1.8 mph 67% 0 in 77.00 W/m2 BKN
07:25 78.6 °F 66.7 °F 29.9 in West 1 mph 5 mph 67% 0 in 86.00 W/m2 OVC
07:30 79 °F 66.9 °F 29.9 in West 3.5 mph 1.2 mph 67% 0 in 91.00 W/m2 BKN
07:35 79 °F 67.1 °F 29.9 in Calm   4 mph 67% 0 in 104.00 W/m2 OVC
07:40 79.2 °F 67.3 °F 29.9 in SW 1.2 mph 0.2 mph 67% 0 in 118.00 W/m2 SCT
07:45 79.3 °F 66.9 °F 29.9 in Calm   2 mph 66% 0 in 114.00 W/m2 OVC
07:50 79.5 °F 67.1 °F 29.9 in WSW 1.2 mph 0.2 mph 66% 0 in 134.00 W/m2 SCT
07:55 79.5 °F 67.3 °F 29.9 in WSW 1 mph 2 mph 66% 0 in 134.00 W/m2 OVC
08:00 79.9 °F 67.5 °F 29.9 in WNW 1.2 mph 0.1 mph 66% 0 in 167.00 W/m2 SCT
08:05 80.1 °F 67.6 °F 29.9 in WNW 1 mph 2 mph 66% 0 in 181.00 W/m2 BKN
08:10 80.4 °F 67.6 °F 29.9 in WNW 1.2 mph   65% 0 in 165.00 W/m2 SCT
08:15 80.6 °F 67.3 °F 29.9 in Calm   2 mph 64% 0 in 199.00 W/m2 BKN
08:20 81 °F 67.6 °F 29.9 in West 2.3 mph 1.3 mph 64% 0 in 216.00 W/m2 SCT
08:25 81.1 °F 67.3 °F 29.9 in Calm   3 mph 63% 0 in 239.00 W/m2 BKN
08:30 81.5 °F 67.3 °F 29.9 in WSW 1.2 mph 0.3 mph 62% 0 in 267.00 W/m2 SCT
08:35 81.7 °F 67.5 °F 29.9 in Calm   2 mph 62% 0 in 350.00 W/m2 SCT
08:40 82 °F 67.8 °F 29.9 in WSW 1.2 mph 0.1 mph 62% 0 in 251.00 W/m2 SCT
Countryside Manor, Tucson, AZ, USA